Regional Weather Roundup
Issued by NWS Jackson, KY

Home | Current Version | Previous Version | Text Only | Print | Product List | Glossary On
Versions: 1 2 3 4 5 6 7 8 9 10 11 12 13 14 15 16 17 18 19 20 21 22 23 24 25 26 27 28 29 30 31 32 33 34 35 36 37 38 39 40 41 42 43 44 45 46 47 48 49 50
000
ASUS43 KJKL 280110
RWRJKL

EAST KENTUCKY HOURLY WEATHER ROUNDUP
NATIONAL WEATHER SERVICE JACKSON KY
900 PM EDT MON JUL 27 2015

NOTE: "FAIR" INDICATES FEW OR NO CLOUDS BELOW 12,000 FEET WITH
NO SIGNIFICANT WEATHER AND/OR OBSTRUCTIONS TO VISIBILITY.

* THESE REPORTS ARE NOT UNDER NWS QUALITY CONTROL AND MAY NOT
  REPORT WEATHER SUCH AS PRECIPITATION AND FOG.

KYZ079-080-083-085-087-088-110-112-115-119-120-280200
...EASTERN KENTUCKY...

CITY           SKY/WX    TMP DP  RH WIND       PRES   REMARKS
JACKSON        PTCLDY    77  72  84 CALM      30.00R
LONDON         HVY RAIN  78  68  71 W15G25    30.01R
SOMERSET*      CLEAR     81  72  74 CALM      29.99R
MONTICELLO*    PTCLDY    79  78  96 CALM      30.01R
WILLIAMSBURG*  PTCLDY    77  73  88 SE7       30.01
MIDDLESBORO*   CLOUDY    77  72  82 W3        30.02R
HAZARD APT*    CLEAR     81  73  78 CALM      30.00R
PIKEVILLE APT* CLOUDY    75  73  94 N3        30.00R
BIG SANDY*     MOCLDY    75  69  82 N3        30.00R
MOREHEAD APT*  PTCLDY    75  72  88 NE3       29.99S
$$

KYZ035-036-041-042-044-050-067-078-099-280200
...CENTRAL KENTUCKY...

CITY           SKY/WX    TMP DP  RH WIND       PRES   REMARKS
MT STERLING*   PTCLDY    81  75  83 CALM      29.99R
FLEMING/MASON* PTCLDY    75  72  88 CALM      29.98R
DANVILLE*      CLEAR     79  73  83 CALM      29.99R
RICHMOND*      CLEAR     82  72  69 CALM      29.98R
LEXINGTON      PTCLDY    81  73  76 W3        29.97R
FRANKFORT      PTCLDY    81  73  76 W3        29.95R
$$

KYZ091>093-OHZ055-061-077-WVZ005-015-034-035-042-280200
...SOUTHERN OHIO/WEST VIRGINIA...

CITY           SKY/WX    TMP DP  RH WIND       PRES   REMARKS
COVINGTON      MOCLDY    82  72  71 NE8       29.97R
COLUMBUS       MOCLDY    79  66  64 E5        29.97R
DAYTON         PTCLDY    77  73  87 NE6       30.00R
WILMINGTON     CLOUDY    78  71  79 NE6       29.98R
HUNTINGTON     PTCLDY    76  73  91 E5        29.96R
CHARLESTON     MOCLDY    72  70  93 E5        29.99R
PINEVILLE*     PTCLDY    73  73  99 MISG      30.08R
BECKLEY        MOCLDY    76  68  76 NE3       30.07R
BLUEFIELD      MOCLDY    76  66  71 CALM      30.10R
$$

VAZ002-007-008-TNZ017-027-036-066-071-280200
...SOUTHWEST VIRGINIA/EAST TENNESSEE...

CITY           SKY/WX    TMP DP  RH WIND       PRES   REMARKS
WISE*          CLOUDY    75  70  83 SE3       30.09R
ABINGDON*      PTCLDY    76  70  80 CALM      30.05S
BRISTOL        PTCLDY    77  71  82 CALM      30.01R
KNOXVILLE      MOCLDY    85  72  65 W5        29.97R HX  91
OAK RIDGE      MOCLDY    83  73  72 CALM      29.99R
CROSSVILLE     PTCLDY    79  72  79 CALM      30.05R
NASHVILLE      MOCLDY    88  74  63 CALM      29.95R HX  96
$$

...KEY TO REMARKS...
VSB - VISIBILITY IN MILES
WCI - WIND CHILL INDEX
HX  - HEAT INDEX

$$


USA.gov is the U.S. government's official web portal to all federal, state and local government web resources and services.